Weather History for Fayetteville, AR

Change the Weather History Date:

Saturday, November 23, 2013

  Actual Average Record
Temperature  
Mean Temperature 31 °F 44 °F  
Max Temperature 38 °F 55 °F 73 °F (1973)
Min Temperature 24 °F 33 °F 13 °F (1970)
Degree Days  
Heating Degree Days 34 21  
Month to date heating degree days 399 372  
Since 1 July heating degree days 669 672  
Moisture  
Dew Point 23 °F    
Average Humidity 66    
Maximum Humidity 92    
Minimum Humidity 40    
Precipitation  
Precipitation T in 0.13 in 1.55 in (1951)
Month to date precipitation 2.24 3.28  
Year to date precipitation 42.53 44.32  
Sea Level Pressure  
Sea Level Pressure 30.59 in    
Wind  
Wind Speed 6 mph (NNE)    
Max Wind Speed 14 mph    
Max Gust Speed 20 mph    
Visibility 10 miles    
Events      
T = Trace of Precipitation, MM = Missing Value Source: NWS Daily Summary

Daily Weather History Graph

Daily Weather History Graph

Search for Another Location

Airport:

Trip Planner

Search our weather history database for the weather conditions in past years. The results will help you decide how hot, cold, wet, or windy it might be!

Date:

Astronomy

Nov. 23, 2013 Rise Set
Actual Time 7:01 AM CST 5:04 PM CST
Civil Twilight 6:33 AM CST 5:32 PM CST
Nautical Twilight 6:02 AM CST 6:03 PM CST
Astronomical Twilight 5:31 AM CST 6:34 PM CST
Moon 10:29 PM CST (11/23) 11:22 AM CST (11/23)
Length of Visible Light 10h 58m
Length of Day
10h 03m
Waning Gibbous, 69% of the Moon is Illuminated
Nov 23
Waning Gibbous
Nov 25
Last Quarter
Dec 2
New
Dec 9
First Quarter
Dec 17
Full

Hourly Weather History & Observations

Time (CST) Temp. Windchill Dew Point Humidity Pressure Visibility Wind Dir Wind Speed Gust Speed Precip Events Conditions
12:32 AM 32.0 °F 26.4 °F 30.2 °F 93% 30.49 in 10.0 mi Variable 5.8 mph - 0.00 in   Overcast
12:53 AM 32.0 °F 27.5 °F 30.0 °F 92% 30.52 in 10.0 mi NNE 4.6 mph - 0.00 in   Overcast
1:49 AM 32.0 °F 28.7 °F 30.2 °F 93% 30.49 in 10.0 mi NNE 3.5 mph - 0.00 in   Overcast
1:53 AM 32.0 °F 26.4 °F 30.9 °F 96% 30.52 in 10.0 mi NE 5.8 mph - 0.00 in   Overcast
2:53 AM 32.0 °F 28.7 °F 30.0 °F 92% 30.54 in 10.0 mi Variable 3.5 mph - N/A   Overcast
3:50 AM 32.0 °F 26.4 °F 30.2 °F 93% 30.50 in 10.0 mi NE 5.8 mph - N/A   Overcast
3:53 AM 32.0 °F 26.4 °F 30.0 °F 92% 30.53 in 10.0 mi NE 5.8 mph - N/A   Overcast
4:53 AM 32.0 °F 27.5 °F 30.0 °F 92% 30.55 in 10.0 mi Variable 4.6 mph - N/A   Overcast
5:53 AM 32.0 °F 26.4 °F 30.0 °F 92% 30.56 in 10.0 mi North 5.8 mph - N/A   Overcast
6:53 AM 32.0 °F 26.4 °F 30.0 °F 92% 30.58 in 10.0 mi NNE 5.8 mph - N/A   Overcast
7:29 AM 32.0 °F 27.5 °F 28.4 °F 87% 30.56 in 10.0 mi North 4.6 mph - N/A   Overcast
7:48 AM 32.0 °F 24.2 °F 28.4 °F 87% 30.58 in 10.0 mi North 9.2 mph - N/A   Overcast
7:53 AM 32.0 °F 26.4 °F 28.0 °F 85% 30.61 in 10.0 mi North 5.8 mph - N/A   Overcast
8:53 AM 32.0 °F 27.5 °F 26.1 °F 79% 30.61 in 10.0 mi NNE 4.6 mph - N/A   Overcast
9:53 AM 34.0 °F 28.8 °F 26.1 °F 73% 30.62 in 10.0 mi North 5.8 mph - N/A   Overcast
10:53 AM 36.0 °F 31.1 °F 16.0 °F 44% 30.63 in 10.0 mi NNE 5.8 mph 16.1 mph N/A   Overcast
11:53 AM 37.0 °F 31.0 °F 17.1 °F 44% 30.63 in 10.0 mi NNE 8.1 mph - N/A   Overcast
12:53 PM 37.9 °F 33.5 °F 19.0 °F 47% 30.62 in 10.0 mi NNE 5.8 mph - N/A   Overcast
1:53 PM 37.9 °F 31.5 °F 15.1 °F 39% 30.60 in 10.0 mi North 9.2 mph - N/A   Mostly Cloudy
2:53 PM 37.0 °F 30.4 °F 18.0 °F 46% 30.60 in 10.0 mi North 9.2 mph 19.6 mph N/A   Clear
3:53 PM 36.0 °F 29.0 °F 21.9 °F 57% 30.61 in 10.0 mi North 9.2 mph - N/A   Clear
4:53 PM 35.1 °F 30.1 °F 21.9 °F 59% 30.61 in 10.0 mi North 5.8 mph - N/A   Clear
5:53 PM 34.0 °F 27.2 °F 21.9 °F 61% 30.62 in 10.0 mi North 8.1 mph - N/A   Clear
6:53 PM 33.1 °F 26.9 °F 19.9 °F 59% 30.63 in 10.0 mi North 6.9 mph 19.6 mph N/A   Clear
7:53 PM 30.0 °F 21.1 °F 17.1 °F 59% 30.65 in 10.0 mi North 10.4 mph 17.3 mph N/A   Clear
8:53 PM 28.0 °F 21.7 °F 14.0 °F 56% 30.66 in 10.0 mi NNE 5.8 mph 16.1 mph N/A   Clear
9:53 PM 26.1 °F 20.5 °F 15.1 °F 63% 30.66 in 10.0 mi NNE 4.6 mph - N/A   Clear
10:53 PM 25.0 °F 19.3 °F 12.9 °F 60% 30.66 in 10.0 mi NNE 4.6 mph - N/A   Clear
11:53 PM 24.1 °F 18.2 °F 10.0 °F 55% 30.65 in 10.0 mi NNE 4.6 mph - N/A   Clear